{"data":{"norad_id":55500,"intl_designator":"2023-015BD","name":"STARLINK-5141","alt_names":[],"object_type":"PAYLOAD","status":"ACTIVE","operator":null,"country":"US","launch_date":"2023-02-02","launch_site_code":"AFETR","launch_vehicle":null,"mission":null,"orbit_class":"UNKNOWN","rcs_meters":null,"size_class":null,"mass_kg":null,"dimensions":null,"purposes":["comms"],"wikipedia_slug":null,"has_3d_model":false,"image_url":null,"decayed_at":null,"tle_current":{"epoch":"2026-05-24T16:09:26.740224Z","epoch_age_seconds":93562,"freshness":"FRESH","line1":"1 55500U 23015BD  26144.67322616  .00000043  00000+0  11102-4 0  9991","line2":"2 55500  43.0058 270.8077 0002106 279.7030  80.3583 15.27575305182216","mean_motion":15.27575305,"eccentricity":0.0002106,"inclination_deg":43.0058,"raan_deg":270.8077,"arg_perigee_deg":279.703,"mean_anomaly_deg":80.3583,"bstar":1.1102e-5,"rev_number":18221,"period_min":94.267038442337,"perigee_km":481.61818584212,"apogee_km":484.50812334723,"semimajor_km":6861.2001545947,"source":"CELESTRAK","updated_at":"2026-05-25T13:38:17.832926Z"}}}